Location: Lafig�re
(44.4503°N, 4.0357°E)
Time: 14:24:44
(UTC+00:00)

Transit 2A Rocket - Pass Details

Date: 21 January 2021
Orbit: 594 x 908 km, 66.7° (Epoch: 06 March)

Event Time Altitude Azimuth Distance (km) Brightness Sun altitude
Rises 13:01:55 0° 221° (SW) 3,359 9.4 24.0°
Reaches altitude 10° 13:04:29 10° 225° (SW) 2,383 8.8 23.9°
Maximum altitude 13:09:53 60° 305° (NW) 864 5.5 23.5°
Drops below altitude 10° 13:14:49 10° 26° (NNE) 2,186 6.9 23.3°
Sets 13:17:06 0° 30° (NNE) 3,060 7.5 23.1°
